TimeEST,TemperatureF,Dew PointF,Humidity,Sea Level PressureIn,VisibilityMPH,Wind Direction,Wind SpeedMPH,Gust SpeedMPH,PrecipitationIn,Events,Conditions,WindDirDegrees,DateUTC
12:53 AM,36.0,34.0,93,30.12,3.0,Calm,Calm,-,0.00,,Overcast,0,2013-01-12 05:53:00
1:00 AM,35.6,33.8,93,30.12,2.0,Calm,Calm,-,N/A,,Overcast,0,2013-01-12 06:00:00
1:07 AM,35.6,33.8,93,30.12,1.2,Calm,Calm,-,N/A,,Overcast,0,2013-01-12 06:07:00
1:12 AM,35.6,33.8,93,30.12,0.8,Calm,Calm,-,N/A,,Overcast,0,2013-01-12 06:12:00
1:28 AM,35.6,33.8,93,30.12,0.5,NW,4.6,-,N/A,Fog,Fog,310,2013-01-12 06:28:00
1:36 AM,35.6,33.8,93,30.12,0.8,NW,3.5,-,N/A,,Overcast,320,2013-01-12 06:36:00
1:44 AM,35.6,35.6,100,30.12,1.2,Calm,Calm,-,N/A,,Overcast,0,2013-01-12 06:44:00
1:53 AM,36.0,35.1,97,30.12,1.2,Calm,Calm,-,N/A,,Overcast,0,2013-01-12 06:53:00
2:14 AM,35.6,33.8,93,30.12,0.5,Calm,Calm,-,N/A,Fog,Fog,0,2013-01-12 07:14:00
2:53 AM,35.1,33.1,92,30.12,0.5,Calm,Calm,-,N/A,Fog,Fog,0,2013-01-12 07:53:00
3:06 AM,35.6,35.6,100,30.14,1.0,Calm,Calm,-,N/A,,Overcast,0,2013-01-12 08:06:00
3:38 AM,35.6,33.8,93,30.12,0.5,Calm,Calm,-,N/A,Fog,Fog,0,2013-01-12 08:38:00
3:53 AM,35.1,34.0,96,30.11,0.8,Calm,Calm,-,N/A,,Overcast,0,2013-01-12 08:53:00
3:56 AM,35.6,33.8,93,30.12,1.0,Calm,Calm,-,N/A,,Overcast,0,2013-01-12 08:56:00
4:05 AM,35.6,33.8,93,30.11,0.8,Calm,Calm,-,N/A,,Overcast,0,2013-01-12 09:05:00
4:30 AM,33.8,33.8,100,30.11,0.5,West,4.6,-,N/A,Fog,Fog,280,2013-01-12 09:30:00
4:53 AM,35.1,34.0,96,30.09,0.5,Calm,Calm,-,N/A,Fog,Fog,0,2013-01-12 09:53:00
5:35 AM,35.6,33.8,93,30.12,0.2,Calm,Calm,-,N/A,Fog,Fog,0,2013-01-12 10:35:00
5:53 AM,35.1,33.1,92,30.12,0.2,Calm,Calm,-,N/A,Fog,Fog,0,2013-01-12 10:53:00
6:02 AM,35.6,33.8,93,30.13,0.5,Calm,Calm,-,N/A,Fog,Fog,0,2013-01-12 11:02:00
6:42 AM,35.6,35.6,100,30.14,1.2,Calm,Calm,-,N/A,,Overcast,0,2013-01-12 11:42:00
6:53 AM,35.1,34.0,96,30.12,1.0,ESE,3.5,-,N/A,,Overcast,110,2013-01-12 11:53:00
7:08 AM,35.6,33.8,93,30.13,2.5,Calm,Calm,-,N/A,,Overcast,0,2013-01-12 12:08:00
7:21 AM,35.6,33.8,93,30.14,1.8,Calm,Calm,-,N/A,,Overcast,0,2013-01-12 12:21:00
7:38 AM,33.8,33.8,100,30.14,0.8,NNW,3.5,-,N/A,,Overcast,330,2013-01-12 12:38:00
7:49 AM,35.6,33.8,93,30.15,1.0,Calm,Calm,-,N/A,,Overcast,0,2013-01-12 12:49:00
7:53 AM,35.1,34.0,96,30.15,0.8,Calm,Calm,-,N/A,,Overcast,0,2013-01-12 12:53:00
8:33 AM,35.6,35.6,100,30.15,1.2,East,3.5,-,N/A,,Overcast,90,2013-01-12 13:33:00
8:53 AM,37.0,36.0,96,30.15,1.2,Calm,Calm,-,N/A,,Overcast,0,2013-01-12 13:53:00
8:59 AM,35.6,35.6,100,30.15,0.2,Calm,Calm,-,N/A,Fog,Fog,0,2013-01-12 13:59:00
9:04 AM,35.6,35.6,100,30.15,0.2,Calm,Calm,-,N/A,Fog,Fog,0,2013-01-12 14:04:00
9:14 AM,37.4,35.6,93,30.15,0.8,Calm,Calm,-,N/A,,Overcast,0,2013-01-12 14:14:00
9:22 AM,37.4,35.6,93,30.14,1.8,Calm,Calm,-,N/A,,Overcast,0,2013-01-12 14:22:00
9:28 AM,37.4,35.6,93,30.15,2.0,Calm,Calm,-,N/A,,Overcast,0,2013-01-12 14:28:00
9:37 AM,35.6,35.6,100,30.15,0.8,Calm,Calm,-,N/A,,Overcast,0,2013-01-12 14:37:00
9:53 AM,37.0,36.0,96,30.15,0.8,Calm,Calm,-,N/A,,Overcast,0,2013-01-12 14:53:00
10:04 AM,37.4,35.6,93,30.15,1.2,Calm,Calm,-,N/A,,Overcast,0,2013-01-12 15:04:00
10:19 AM,37.4,37.4,100,30.16,0.5,Calm,Calm,-,N/A,Fog,Fog,0,2013-01-12 15:19:00
10:25 AM,37.4,37.4,100,30.15,1.0,Calm,Calm,-,N/A,,Overcast,0,2013-01-12 15:25:00
10:53 AM,39.0,37.9,96,30.14,1.0,Calm,Calm,-,N/A,,Overcast,0,2013-01-12 15:53:00
11:00 AM,37.4,37.4,100,30.14,0.5,WSW,3.5,-,N/A,Fog,Fog,250,2013-01-12 16:00:00
11:17 AM,37.4,37.4,100,30.14,1.2,WSW,5.8,-,N/A,,Overcast,240,2013-01-12 16:17:00
11:53 AM,39.9,37.9,93,30.13,2.5,SW,3.5,-,N/A,,Overcast,230,2013-01-12 16:53:00
12:53 PM,41.0,39.0,93,30.12,2.5,Calm,Calm,-,N/A,,Overcast,0,2013-01-12 17:53:00
1:06 PM,41.0,39.2,93,30.13,1.0,Calm,Calm,-,N/A,,Overcast,0,2013-01-12 18:06:00
1:25 PM,42.8,39.2,87,30.14,3.0,Calm,Calm,-,N/A,,Overcast,0,2013-01-12 18:25:00
1:53 PM,42.1,41.0,96,30.13,4.0,Calm,Calm,-,N/A,,Overcast,0,2013-01-12 18:53:00
2:20 PM,42.8,39.2,87,30.13,7.0,Calm,Calm,-,N/A,,Overcast,0,2013-01-12 19:20:00
2:53 PM,43.0,39.9,89,30.13,6.0,Calm,Calm,-,N/A,,Overcast,0,2013-01-12 19:53:00
3:53 PM,43.0,39.9,89,30.13,5.0,Calm,Calm,-,N/A,,Overcast,0,2013-01-12 20:53:00
4:23 PM,42.8,39.2,87,30.13,2.5,Calm,Calm,-,N/A,,Overcast,0,2013-01-12 21:23:00
4:45 PM,41.0,39.2,93,30.16,1.0,Calm,Calm,-,N/A,,Overcast,0,2013-01-12 21:45:00
4:53 PM,39.9,39.0,97,30.16,0.8,Calm,Calm,-,N/A,,Overcast,0,2013-01-12 21:53:00
5:08 PM,41.0,39.2,93,30.16,1.5,Calm,Calm,-,N/A,,Overcast,0,2013-01-12 22:08:00
5:25 PM,41.0,39.2,93,30.15,0.5,SSE,3.5,-,N/A,Fog,Fog,160,2013-01-12 22:25:00
5:53 PM,42.1,41.0,96,30.14,1.5,Calm,Calm,-,N/A,,Overcast,0,2013-01-12 22:53:00
6:04 PM,42.8,41.0,93,30.14,1.0,South,3.5,-,N/A,,Overcast,170,2013-01-12 23:04:00
6:25 PM,42.8,39.2,87,30.14,0.5,Calm,Calm,-,N/A,Fog,Fog,0,2013-01-12 23:25:00
6:53 PM,41.0,39.0,93,30.14,0.5,SSW,3.5,-,N/A,Fog,Fog,210,2013-01-12 23:53:00
7:17 PM,39.2,39.2,100,30.13,0.2,SE,4.6,-,N/A,Fog,Fog,130,2013-01-13 00:17:00
7:53 PM,39.0,37.9,96,30.14,0.2,Calm,Calm,-,N/A,Fog,Fog,0,2013-01-13 00:53:00
8:22 PM,39.2,37.4,93,30.13,0.2,SE,3.5,-,N/A,Fog,Fog,130,2013-01-13 01:22:00
8:34 PM,39.2,39.2,100,30.13,0.8,Calm,Calm,-,N/A,,Overcast,0,2013-01-13 01:34:00
8:41 PM,39.2,37.4,93,30.12,1.2,Calm,Calm,-,N/A,,Overcast,0,2013-01-13 01:41:00
8:51 PM,39.2,37.4,93,30.13,0.8,Calm,Calm,-,N/A,,Overcast,0,2013-01-13 01:51:00
8:53 PM,39.0,37.9,96,30.12,0.8,Calm,Calm,-,N/A,,Overcast,0,2013-01-13 01:53:00
9:13 PM,37.4,37.4,100,30.13,1.2,Calm,Calm,-,N/A,,Overcast,0,2013-01-13 02:13:00
9:42 PM,39.2,37.4,93,30.11,1.2,SE,3.5,-,N/A,,Overcast,140,2013-01-13 02:42:00
9:53 PM,39.0,37.9,96,30.11,1.2,Calm,Calm,-,N/A,,Overcast,0,2013-01-13 02:53:00
10:05 PM,39.2,39.2,100,30.12,3.0,Calm,Calm,-,N/A,,Overcast,0,2013-01-13 03:05:00
10:08 PM,37.4,37.4,100,30.12,1.8,Calm,Calm,-,N/A,,Overcast,0,2013-01-13 03:08:00
10:19 PM,39.2,37.4,93,30.12,0.8,Calm,Calm,-,N/A,,Overcast,0,2013-01-13 03:19:00
10:35 PM,37.4,37.4,100,30.13,0.8,Calm,Calm,-,N/A,,Overcast,0,2013-01-13 03:35:00
10:53 PM,37.9,37.0,97,30.12,0.5,South,3.5,-,N/A,Fog,Fog,170,2013-01-13 03:53:00
11:11 PM,39.2,39.2,100,30.13,1.2,Calm,Calm,-,N/A,,Overcast,0,2013-01-13 04:11:00
11:20 PM,37.4,35.6,93,30.13,0.2,Calm,Calm,-,N/A,Fog,Fog,0,2013-01-13 04:20:00
11:36 PM,37.4,37.4,100,30.14,0.2,Calm,Calm,-,N/A,Fog,Fog,0,2013-01-13 04:36:00
11:42 PM,37.4,37.4,100,30.13,0.5,Calm,Calm,-,N/A,Fog,Fog,0,2013-01-13 04:42:00
11:53 PM,37.9,36.0,93,30.13,0.8,SE,3.5,-,N/A,,Overcast,140,2013-01-13 04:53:00